GW3419 Weather Reports


Display with metric or nautical units.
time (UTC)temp
F
wind
direction
speed
MPH
gust
MPH
rain 1hr
in
rain 24hr
in
rain mn
in
humidity
%
barometer
mb
20260831014458 74 209 5.0 8.0 0.00 0.00 0.00 88 1006.4
20260831013954 74 202 4.0 8.0 0.00 0.00 0.00 88 1006.3
20260831013450 74 204 4.0 13.0 0.00 0.00 0.00 88 1006.1
20260831012949 74 219 6.0 11.0 0.00 0.00 0.00 88 1006.2
20260831012444 74 176 4.0 7.0 0.00 0.00 0.00 88 1006.2
20260831011938 74 206 5.0 8.0 0.00 0.00 0.00 88 1006.1
20260831011427 74 199 3.0 9.0 0.00 0.00 0.00 87 1006.2
20260831010923 75 194 4.0 9.0 0.00 0.00 0.00 86 1005.9
20260831010418 75 195 5.0 6.0 0.00 0.00 0.00 86 1006.0
20260831005914 75 164 2.0 6.0 0.00 0.00 0.00 85 1006.0
20260831005409 75 202 3.0 6.0 0.00 0.00 0.00 85 1005.9
20260831004903 75 186 2.0 5.0 0.00 0.00 0.00 85 1005.9
20260831004400 75 213 4.0 7.0 0.00 0.00 0.00 84 1006.0
20260831003855 76 191 3.0 7.0 0.00 0.00 0.00 83 1006.2
20260831003351 76 193 3.0 9.0 0.00 0.00 0.00 82 1006.0
20260831002851 77 207 4.0 6.0 0.00 0.00 0.00 81 1006.0
20260831002350 77 224 6.0 8.0 0.00 0.00 0.00 80 1006.3
20260831001845 77 217 6.0 9.0 0.00 0.00 0.00 79 1006.0
20260831001340 78 208 7.0 9.0 0.00 0.00 0.00 78 1006.0
20260831000838 78 191 2.0 8.0 0.00 0.00 0.00 78 1006.0
20260831000340 78 193 3.0 7.0 0.00 0.00 0.00 77 1006.0
20260830235835 78 246 4.0 5.0 0.00 0.00 0.00 77 1006.0
20260830235330 79 230 5.0 9.0 0.00 0.00 0.00 75 1006.0
20260830234826 79 219 8.0 9.0 0.00 0.00 0.00 76 1006.2
20260830234322 79 224 5.0 9.0 0.00 0.00 0.00 76 1005.9
20260830233817 79 213 5.0 8.0 0.00 0.00 0.00 75 1006.0
20260830233313 79 205 5.0 8.0 0.00 0.00 0.00 76 1005.8
20260830232808 80 212 7.0 9.0 0.00 0.00 0.00 75 1005.9
20260830232306 80 198 5.0 7.0 0.00 0.00 0.00 75 1005.8
20260830231800 80 211 3.0 5.0 0.00 0.00 0.00 74 1005.9
20260830231255 80 216 4.0 11.0 0.00 0.00 0.00 72 1005.8
20260830230749 81 229 5.0 11.0 0.00 0.00 0.00 71 1005.7
20260830230245 82 240 5.0 12.0 0.00 0.00 0.00 71 1005.6
20260830225744 82 228 6.0 11.0 0.00 0.00 0.00 70 1005.5
20260830225239 82 197 11.0 11.0 0.00 0.00 0.00 71 1005.7
20260830224738 82 197 6.0 12.0 0.00 0.00 0.00 71 1005.7
20260830224234 82 203 6.0 10.0 0.00 0.00 0.00 73 1005.2
20260830223730 82 200 7.0 12.0 0.00 0.00 0.00 72 1005.2
20260830223225 83 234 4.0 8.0 0.00 0.00 0.00 71 1005.5
20260830222715 83 223 7.0 10.0 0.00 0.00 0.00 70 1005.2
20260830222210 83 210 4.0 11.0 0.00 0.00 0.00 71 1005.4
20260830221706 82 222 7.0 12.0 0.00 0.00 0.00 71 1005.2
20260830221202 82 231 3.0 14.0 0.00 0.00 0.00 71 1005.4
20260830220657 82 206 7.0 10.0 0.00 0.00 0.00 72 1005.5
20260830220156 82 222 11.0 14.0 0.00 0.00 0.00 72 1005.4
20260830215655 82 209 8.0 9.0 0.00 0.00 0.00 75 1005.5
20260830215149 83 202 7.0 9.0 0.00 0.00 0.00 75 1005.0
20260830214645 83 215 2.0 9.0 0.00 0.00 0.00 75 1005.0
20260830214139 83 251 4.0 7.0 0.00 0.00 0.00 73 1005.2
20260830213638 84 218 4.0 8.0 0.00 0.00 0.00 74 1004.9
20260830213134 82 229 1.0 7.0 0.00 0.00 0.00 76 1005.1
20260830212630 83 224 4.0 11.0 0.00 0.00 0.00 74 1005.2
20260830212125 84 222 3.0 7.0 0.00 0.00 0.00 74 1004.9
20260830211619 84 194 4.0 8.0 0.00 0.00 0.00 75 1005.0
20260830211119 84 180 3.0 5.0 0.00 0.00 0.00 75 1004.9
20260830210615 83 204 6.0 8.0 0.00 0.00 0.00 75 1005.2
20260830210114 83 194 5.0 11.0 0.00 0.00 0.00 74 1005.5
20260830205611 85 195 3.0 6.0 0.00 0.00 0.00 71 1004.8
20260830205107 84 191 4.0 7.0 0.00 0.00 0.00 73 1005.0
20260830204606 84 215 3.0 7.0 0.00 0.00 0.00 72 1005.1
20260830204105 84 184 8.0 12.0 0.00 0.00 0.00 71 1005.2
20260830203602 86 190 4.0 9.0 0.00 0.00 0.00 70 1005.2
20260830203056 84 204 5.0 12.0 0.00 0.00 0.00 71 1005.2
20260830202556 85 165 3.0 7.0 0.00 0.00 0.00 74 1005.2
20260830202052 83 180 3.0 10.0 0.00 0.00 0.00 76 1005.1
20260830201551 84 206 8.0 16.0 0.00 0.00 0.00 75 1005.5
20260830201046 84 178 2.0 8.0 0.00 0.00 0.00 75 1005.4
20260830200542 84 221 6.0 8.0 0.00 0.00 0.00 76 1005.5
20260830200040 83 194 4.0 11.0 0.00 0.00 0.00 77 1005.7
20260830195536 83 203 4.0 7.0 0.00 0.00 0.00 77 1005.6
20260830195034 84 179 4.0 12.0 0.00 0.00 0.00 76 1005.5
20260830194533 84 206 6.0 16.0 0.00 0.00 0.00 76 1005.4
20260830194033 84 213 10.0 13.0 0.00 0.00 0.00 74 1005.6
20260830193532 83 190 2.0 11.0 0.00 0.00 0.00 77 1005.5
20260830193028 83 195 5.0 9.0 0.00 0.00 0.00 76 1005.6
20260830192524 84 206 4.0 9.0 0.00 0.00 0.00 76 1005.8
20260830192024 84 216 9.0 13.0 0.00 0.00 0.00 74 1005.4
20260830191519 84 209 4.0 8.0 0.00 0.00 0.00 75 1005.4
20260830191019 84 210 9.0 9.0 0.00 0.00 0.00 75 1005.5
20260830190515 83 184 2.0 7.0 0.00 0.00 0.00 76 1005.4
20260830190010 84 201 4.0 8.0 0.00 0.00 0.00 77 1005.4
20260830185504 83 188 4.0 10.0 0.00 0.00 0.00 76 1005.2
20260830184959 83 175 2.0 5.0 0.00 0.00 0.00 75 1005.2
20260830184458 83 129 0.0 4.0 0.00 0.00 0.00 74 1005.4
20260830183948 83 150 0.0 8.0 0.00 0.00 0.00 74 1005.0
20260830183447 83 198 4.0 6.0 0.00 0.00 0.00 74 1005.2
20260830182943 83 170 3.0 7.0 0.00 0.00 0.00 74 1005.2
20260830182438 82 124 2.0 9.0 0.00 0.00 0.00 75 1004.8
20260830181934 83 152 3.0 6.0 0.00 0.00 0.00 74 1004.9
20260830181430 82 85 2.0 5.0 0.00 0.00 0.00 74 1005.1
20260830180924 83 145 0.0 4.0 0.00 0.00 0.00 72 1005.2
20260830180424 82 121 1.0 4.0 0.00 0.00 0.00 75 1005.4
20260830175923 81 216 3.0 5.0 0.00 0.00 0.00 75 1005.5
20260830175417 82 147 0.0 2.0 0.00 0.00 0.00 76 1005.4
20260830174912 80 234 2.0 6.0 0.00 0.00 0.00 79 1005.8
20260830174408 80 184 3.0 8.0 0.00 0.00 0.00 80 1005.7
20260830173903 80 204 2.0 5.0 0.00 0.00 0.00 82 1005.9
20260830173358 79 185 2.0 6.0 0.00 0.00 0.00 83 1006.1
20260830172854 79 177 3.0 8.0 0.00 0.00 0.00 84 1006.1
20260830172350 79 214 9.0 9.0 0.00 0.00 0.00 84 1006.5
20260830171845 78 187 3.0 4.0 0.00 0.00 0.00 85 1006.4
20260830171341 78 193 3.0 4.0 0.00 0.00 0.00 85 1006.7
20260830170836 78 183 3.0 4.0 0.00 0.00 0.00 85 1006.6
20260830170335 78 105 0.0 5.0 0.00 0.00 0.00 85 1006.6
20260830165829 78 156 3.0 5.0 0.00 0.00 0.00 84 1006.7
20260830165325 78 185 3.0 5.0 0.00 0.00 0.00 84 1006.5
20260830164821 78 216 5.0 8.0 0.00 0.00 0.00 83 1006.8
20260830164317 78 197 5.0 7.0 0.00 0.00 0.00 84 1006.5
20260830163814 78 193 2.0 5.0 0.00 0.00 0.00 84 1006.6
20260830163308 79 180 3.0 5.0 0.00 0.00 0.00 83 1006.4
20260830162803 80 194 3.0 5.0 0.00 0.00 0.00 81 1006.2
20260830162259 80 213 1.0 5.0 0.00 0.00 0.00 81 1005.9
20260830161754 80 168 2.0 5.0 0.00 0.00 0.00 80 1005.8
20260830161253 79 214 4.0 7.0 0.00 0.00 0.00 82 1005.9
20260830160749 80 169 3.0 6.0 0.00 0.00 0.00 80 1005.7
20260830160249 79 149 2.0 6.0 0.00 0.00 0.00 81 1005.6
20260830155745 80 182 3.0 4.0 0.00 0.00 0.00 82 1005.8
20260830155242 79 87 2.0 5.0 0.00 0.00 0.00 81 1005.8
20260830154741 79 74 0.0 6.0 0.00 0.00 0.00 82 1005.5
20260830154237 77 157 1.0 3.0 0.00 0.00 0.00 84 1005.5
20260830153734 77 195 3.0 7.0 0.00 0.00 0.00 85 1005.5
20260830153229 77 210 2.0 3.0 0.00 0.00 0.00 85 1005.1
20260830152727 77 141 0.0 3.0 0.00 0.00 0.00 85 1005.1
20260830152222 77 204 2.0 4.0 0.00 0.00 0.00 84 1005.4
20260830151717 76 200 3.0 5.0 0.00 0.00 0.00 85 1005.0
20260830151216 77 95 2.0 6.0 0.00 0.00 0.00 84 1005.1
20260830150711 77 205 4.0 7.0 0.00 0.00 0.00 85 1005.1
20260830150205 76 198 3.0 4.0 0.00 0.00 0.00 86 1005.5
20260830145700 76 212 2.0 4.0 0.00 0.00 0.00 85 1005.2
20260830145155 76 149 2.0 3.0 0.00 0.00 0.00 85 1005.2
20260830144650 77 172 0.0 2.0 0.00 0.00 0.00 85 1005.4
20260830144146 76 132 2.0 4.0 0.00 0.00 0.00 85 1005.0
20260830143642 76 155 3.0 4.0 0.00 0.00 0.00 84 1005.1
20260830143140 76 188 3.0 4.0 0.00 0.00 0.00 87 1005.1
20260830142636 76 189 3.0 3.0 0.00 0.00 0.00 86 1005.1
20260830142135 76 194 3.0 3.0 0.00 0.00 0.00 86 1005.2
20260830141631 75 195 3.0 4.0 0.00 0.00 0.00 87 1005.0
20260830141126 75 216 1.0 3.0 0.00 0.00 0.00 88 1005.2
20260830140622 73 212 2.0 5.0 0.00 0.00 0.00 89 1005.4
20260830140121 74 114 2.0 4.0 0.00 0.00 0.00 91 1005.4
20260830135615 73 180 1.0 3.0 0.00 0.00 0.00 91 1005.1
20260830135110 72 223 0.0 4.0 0.00 0.00 0.00 93 1005.0
20260830134606 71 210 1.0 3.0 0.00 0.00 0.00 94 1005.1
20260830134101 71 168 2.0 4.0 0.00 0.00 0.00 95 1005.2
20260830133557 71 212 5.0 6.0 0.00 0.00 0.00 94 1005.2
20260830133051 70 223 3.0 4.0 0.00 0.00 0.00 95 1005.1
20260830132548 70 160 3.0 5.0 0.00 0.00 0.00 95 1005.0
20260830132043 70 197 2.0 3.0 0.00 0.00 0.00 95 1005.4
20260830131542 71 173 1.0 5.0 0.00 0.00 0.00 95 1005.1
20260830131036 70 210 0.0 4.0 0.00 0.00 0.00 95 1005.1
20260830130531 70 193 2.0 4.0 0.00 0.00 0.00 96 1005.0
20260830130027 69 263 1.0 3.0 0.00 0.00 0.00 96 1005.2
20260830125521 69 213 3.0 4.0 0.00 0.00 0.00 97 1005.5
20260830125020 69 183 3.0 4.0 0.00 0.00 0.00 97 1005.4
20260830124515 69 102 1.0 2.0 0.00 0.00 0.00 97 1005.5
20260830124010 69 135 0.0 3.0 0.00 0.00 0.00 97 1005.6
20260830123507 69 127 0.0 3.0 0.00 0.00 0.00 97 1005.2
20260830123002 69 181 3.0 3.0 0.00 0.00 0.00 97 1005.2
20260830122459 69 204 2.0 4.0 0.00 0.00 0.00 98 1005.2
20260830121954 68 221 6.0 6.0 0.00 0.00 0.00 98 1005.2
20260830121449 68 196 3.0 6.0 0.00 0.00 0.00 99 1004.8
20260830120943 68 206 4.0 5.0 0.00 0.00 0.00 99 1004.8
20260830120439 68 214 6.0 7.0 0.00 0.00 0.00 99 1004.9
20260830115935 68 187 2.0 5.0 0.00 0.00 0.00 99 1004.7
20260830115431 68 195 4.0 7.0 0.00 0.00 0.00 99 1004.7
20260830114926 68 211 2.0 4.0 0.00 0.00 0.00 99 1004.9
20260830114423 68 199 2.0 5.0 0.00 0.00 0.00 99 1004.5
20260830113922 68 195 2.0 5.0 0.00 0.00 0.00 99 1005.1
20260830113417 68 192 2.0 7.0 0.00 0.00 0.00 99 1004.8
20260830112913 68 196 2.0 5.0 0.00 0.00 0.00 99 1005.1
20260830112409 68 206 3.0 5.0 0.00 0.00 0.00 99 1005.1
20260830111905 68 213 7.0 9.0 0.00 0.00 0.00 99 1005.0
20260830111400 68 218 3.0 4.0 0.00 0.00 0.00 99 1004.7
20260830110855 68 192 2.0 5.0 0.00 0.00 0.00 99 1004.8
20260830110351 68 154 2.0 4.0 0.00 0.00 0.00 98 1005.1
20260830105850 68 208 3.0 5.0 0.00 0.00 0.00 98 1005.4
20260830105347 68 196 2.0 6.0 0.00 0.00 0.00 98 1004.9
20260830104842 68 222 3.0 5.0 0.00 0.00 0.00 98 1005.0
20260830104339 68 215 6.0 7.0 0.00 0.00 0.00 98 1005.0
20260830103838 68 196 4.0 9.0 0.00 0.00 0.00 98 1005.0
20260830103334 68 205 4.0 8.0 0.00 0.00 0.00 98 1005.0
20260830102832 68 219 4.0 7.0 0.00 0.00 0.00 98 1005.0
20260830102328 68 210 4.0 7.0 0.00 0.00 0.00 98 1005.0
20260830101824 68 212 6.0 9.0 0.00 0.00 0.00 98 1004.9
20260830101319 68 208 5.0 10.0 0.00 0.00 0.00 98 1004.8
20260830100818 68 212 5.0 8.0 0.00 0.00 0.00 98 1005.1
20260830100313 69 199 4.0 10.0 0.00 0.00 0.00 98 1004.8
20260830095812 69 213 7.0 9.0 0.00 0.00 0.00 98 1004.9
20260830095308 69 198 3.0 9.0 0.00 0.00 0.00 98 1004.7
20260830094804 69 202 5.0 9.0 0.00 0.00 0.00 97 1004.9
20260830094300 69 203 5.0 10.0 0.00 0.00 0.00 97 1005.1
20260830093755 69 200 6.0 8.0 0.00 0.00 0.00 98 1005.1
20260830093250 69 221 8.0 8.0 0.00 0.00 0.00 98 1005.1
20260830092744 69 203 4.0 9.0 0.00 0.00 0.00 98 1005.0
20260830092242 69 198 4.0 6.0 0.00 0.00 0.00 98 1005.1
20260830091738 69 205 4.0 6.0 0.00 0.00 0.00 98 1005.0
20260830091237 69 207 4.0 6.0 0.00 0.00 0.00 98 1004.9
20260830090736 69 208 3.0 5.0 0.00 0.00 0.00 98 1004.8
20260830090232 69 185 3.0 6.0 0.00 0.00 0.00 98 1005.1
20260830085731 69 226 4.0 5.0 0.00 0.00 0.00 98 1005.1
20260830085227 69 191 3.0 5.0 0.00 0.00 0.00 97 1005.2
20260830084722 69 196 2.0 5.0 0.00 0.00 0.00 98 1005.0
20260830084217 69 213 5.0 6.0 0.00 0.00 0.00 98 1005.4
20260830083712 69 214 4.0 7.0 0.00 0.00 0.00 97 1005.2
20260830083208 69 202 4.0 6.0 0.00 0.00 0.00 97 1005.5
20260830082707 69 211 7.0 7.0 0.00 0.00 0.00 97 1005.6
20260830082203 69 215 3.0 7.0 0.00 0.00 0.00 97 1005.2
20260830081659 69 185 3.0 6.0 0.00 0.00 0.00 97 1005.5
20260830081158 69 211 4.0 7.0 0.00 0.00 0.00 97 1005.4
20260830080653 69 198 4.0 7.0 0.00 0.00 0.00 97 1005.2
20260830080149 69 206 3.0 6.0 0.00 0.00 0.00 97 1005.4
20260830075648 69 189 2.0 5.0 0.00 0.00 0.00 97 1005.2
20260830075143 69 192 4.0 6.0 0.00 0.00 0.00 97 1005.5
20260830074639 69 191 3.0 7.0 0.00 0.00 0.00 97 1005.2
20260830074134 69 203 4.0 7.0 0.00 0.00 0.00 97 1005.5
20260830073631 69 202 4.0 7.0 0.00 0.00 0.00 97 1005.5
20260830073126 69 204 3.0 7.0 0.00 0.00 0.00 97 1005.5
20260830072621 69 189 4.0 6.0 0.00 0.00 0.00 97 1005.5
20260830072121 69 201 4.0 7.0 0.00 0.00 0.00 97 1005.5
20260830071616 69 201 4.0 8.0 0.00 0.00 0.00 97 1005.4
20260830071114 69 203 3.0 9.0 0.00 0.00 0.00 97 1005.4
20260830070609 69 218 7.0 9.0 0.00 0.00 0.00 97 1005.6
20260830070104 69 193 4.0 9.0 0.00 0.00 0.00 97 1005.6
20260830065603 69 215 6.0 8.0 0.00 0.00 0.00 97 1005.2
20260830065102 69 191 3.0 10.0 0.00 0.00 0.00 97 1005.7
20260830064556 69 200 5.0 7.0 0.00 0.00 0.00 97 1005.8
20260830064051 69 206 5.0 10.0 0.00 0.00 0.00 97 1006.1
20260830063551 69 211 4.0 9.0 0.00 0.00 0.00 97 1005.9
20260830063051 69 211 6.0 10.0 0.00 0.00 0.00 97 1006.0
20260830062551 69 203 3.0 9.0 0.00 0.00 0.00 97 1006.1
20260830062046 69 213 5.0 8.0 0.00 0.00 0.00 97 1006.1
20260830061540 69 211 6.0 7.0 0.00 0.00 0.00 96 1006.1
20260830061037 69 176 3.0 8.0 0.00 0.00 0.00 96 1006.2
20260830060532 69 186 3.0 6.0 0.00 0.00 0.00 96 1006.0
20260830060029 69 185 3.0 9.0 0.00 0.00 0.00 96 1006.1
20260830055524 69 186 3.0 5.0 0.00 0.00 0.00 96 1006.4
20260830055020 69 213 3.0 7.0 0.00 0.00 0.00 96 1006.2
20260830054515 69 210 4.0 7.0 0.00 0.00 0.00 95 1006.0
20260830054010 69 202 2.0 5.0 0.00 0.00 0.00 95 1006.0
20260830053506 69 186 4.0 6.0 0.00 0.00 0.00 95 1006.3
20260830053004 69 188 3.0 5.0 0.00 0.00 0.00 95 1006.2
20260830052500 69 202 1.0 5.0 0.00 0.00 0.00 94 1006.4
20260830051955 69 181 2.0 5.0 0.00 0.00 0.00 94 1006.7
20260830051449 70 200 3.0 6.0 0.00 0.00 0.00 94 1006.4
20260830050944 70 199 4.0 7.0 0.00 0.00 0.00 94 1006.6
20260830050440 70 186 3.0 5.0 0.00 0.00 0.00 94 1006.4
20260830045938 70 200 2.0 5.0 0.00 0.41 0.41 93 1006.6
20260830045433 70 199 3.0 6.0 0.00 0.41 0.41 93 1006.7
20260830044932 70 193 2.0 4.0 0.00 0.41 0.41 93 1006.6
20260830044428 70 202 2.0 5.0 0.00 0.41 0.41 93 1006.8
20260830043923 70 207 3.0 4.0 0.00 0.41 0.41 93 1006.9
20260830043418 70 198 3.0 7.0 0.00 0.41 0.41 92 1006.9
20260830042915 70 188 3.0 7.0 0.00 0.41 0.41 92 1007.0
20260830042410 70 187 2.0 5.0 0.00 0.41 0.41 92 1007.0
20260830041909 70 201 3.0 6.0 0.00 0.41 0.41 92 1007.1
20260830041408 70 192 4.0 6.0 0.00 0.41 0.41 92 1006.9
20260830040908 70 223 6.0 7.0 0.00 0.41 0.41 92 1006.9
20260830040404 70 186 3.0 6.0 0.00 0.41 0.41 92 1007.1
20260830035903 70 208 4.0 7.0 0.00 0.41 0.41 92 1006.9
20260830035402 70 210 4.0 8.0 0.00 0.41 0.41 92 1007.0
20260830034858 70 199 5.0 6.0 0.00 0.41 0.41 92 1007.1
20260830034353 70 193 3.0 5.0 0.00 0.41 0.41 91 1006.9
20260830033848 70 186 2.0 6.0 0.00 0.41 0.41 92 1007.2
20260830033343 70 194 3.0 5.0 0.00 0.41 0.41 92 1007.1
20260830032838 70 203 2.0 4.0 0.00 0.41 0.41 92 1007.0
20260830032332 70 185 2.0 3.0 0.00 0.41 0.41 92 1006.9
20260830031827 70 187 2.0 3.0 0.00 0.41 0.41 92 1006.8
20260830031323 70 211 2.0 3.0 0.00 0.41 0.41 92 1007.0
20260830030818 70 188 2.0 3.0 0.00 0.41 0.41 92 1006.9
20260830030314 70 171 1.0 3.0 0.00 0.41 0.41 91 1007.0
20260830025813 70 199 3.0 3.0 0.00 0.41 0.41 91 1006.9
20260830025308 70 210 2.0 3.0 0.00 0.41 0.41 91 1007.2
20260830024807 70 202 1.0 3.0 0.00 0.41 0.41 90 1007.1
20260830024302 70 208 1.0 3.0 0.00 0.41 0.41 90 1007.1
20260830023759 70 169 1.0 3.0 0.00 0.41 0.41 90 1007.1
20260830023258 70 206 1.0 3.0 0.00 0.41 0.41 90 1007.2
20260830022753 71 169 1.0 2.0 0.00 0.41 0.41 90 1006.9
20260830022248 71 180 1.0 3.0 0.00 0.41 0.41 90 1007.1
20260830021747 71 191 1.0 2.0 0.00 0.41 0.41 90 1006.9
20260830021243 71 211 2.0 3.0 0.00 0.41 0.41 89 1007.0
20260830020742 71 187 1.0 4.0 0.00 0.41 0.41 89 1006.9
20260830020237 71 205 1.0 5.0 0.00 0.41 0.41 89 1006.9
20260830015737 71 147 0.0 3.0 0.00 0.41 0.41 89 1006.7
20260830015232 71 170 1.0 3.0 0.00 0.41 0.41 89 1006.7
20260830014728 71 185 1.0 3.0 0.00 0.41 0.41 89 1006.7